ATLAS CENTAUR 2 DEB, 739

Orbit data source: Space-Track

ATLAS CENTAUR 2 DEB, 739 is space debris in LEO originally from a launch on Wed, 27 Nov 1963 UTC launched from the Air Force Eastern Test Range (AFETR). Debris objects in space refer to the collection of defunct objects orbiting the Earth. Examples of debris include non-operational satellites, rocket bodies, and fragments generated from explosions, collisions, or faulty payload assembly.

Loading next visibility...
Identifier
739, 1963-047H
Orbit
LEO
Last TLE update
12 hours ago
Origin
Manufacturer
GD/Convair
Mission
Spacecraft
Bus & Motor
CENTAUR PART, Unknown motor
Mass
Unknown
Launch date (UTC)
1963-11-27 (62 years ago)
Launch vehicle
Unknown
Launch site
Air Force Eastern Test Range (AFETR)
Object type
Payload
Rocket body
Debris
Shape & HBR
Unknown
Radar Cross Section
0.290 m², Medium (>0.1 m² and < 1m²)

Expand to show TLE details & history

TLE from 12 hours ago
0 ATLAS CENTAUR 2 DEB
1 00739U 63047H   25182.67218845  .00000841  00000-0  12552-3 0  9999
2 00739  30.4233 169.7407 0637267 325.5848  30.5001 13.84813682 92752
Epoch: 2025-07-01T16:07Z
TLE epoch observation values (Epoch: 2025-07-01T16:07:57.082Z)
Latitude
-0.00001°
Longitude
7.78855°
Altitude
551.634 km
Speed
7.789 km/s
True Right ascension
11h 18m 57s
True Declination
0° 00' 00"
Sunlit
Object was in daylight at epoch
Visualization orbit readout
Latitude
3.9467°
Longitude
11.79214°
Altitude
566.396 km
Speed
7.773 km/s
Apparent Right ascension
08h 45m 59s
Apparent Declination
-28° 25' 04"
Sunlit
Object is in daylight
Visualization observer readout
Local Sidereal Time
15:58:08
Azimuth
257.182° W
Elevation
-30.946°
Doppler factor
1
Orbital elements
Apogee altitude
1,417.627 km
Perigee altitude
483.555 km
Semi-major axis
7,328.728 km
Eccentricity
0.06373
Inclination
30.4233°
RAAN
169.7407°
Arg. of periapsis
325.5848°
True anomaly
Unknown
Mean anomaly
30.5001°
Eccentric anomaly
Unknown
Mean motion
3.4594 °/min
Orbital period
104.06 mins
BSTAR
0.00012552
Loading maneuver chart data...
Loading SW <> Apogee altitude chart data...

ATLAS CENTAUR 2 DEB Visibility forecast

Observer location: undefined°, undefined°

Span
Click to sort rows by Start time (UTC) header in descending order
Start Az.
Max El. time (UTC)
Max El. Az.
Max El.
End time (UTC)
End Az.
12 mins2025-07-02 04:31:45.403Z232.593° WSW2025-07-02 04:36:45.403Z176.717° S30.887°2025-07-02 04:43:45.403Z108.544° ESE
12 mins2025-07-02 06:22:45.403Z242.54° WSW2025-07-02 06:27:45.403Z182.156° SSW32.356°2025-07-02 06:34:45.403Z123.527° SE
12 mins2025-07-02 08:12:45.403Z246.781° WSW2025-07-02 08:17:45.403Z203.636° SW24.163°2025-07-02 08:24:45.403Z150.288° SSE
8 mins2025-07-03 02:59:45.403Z200.437° SSW2025-07-03 03:02:45.403Z160.076° S23.031°2025-07-03 03:07:45.403Z109.894° ESE
|